• In Denmark
  • List of Countries
  • For 7 days
  • Water Temperature
  • Satellite Maps
  • Weather Map
  • Weather Widgets
  • user-avatar
    Login

    Hourly Weather Ahmadabad

    Today, 21 January, Sunday

    Time Temperature Precipitation Wind Pressure Humidity
    00:00 +21°C° 0 mm 3 mps 755 mmHg 31%
    01:00 +20°C° 0 mm 3 mps 755 mmHg 32%
    02:00 +20°C° 0 mm 2 mps 754 mmHg 33%
    03:00 +19°C° 0 mm 2 mps 754 mmHg 34%
    04:00 +19°C° 0 mm 2 mps 754 mmHg 35%
    05:00 +18°C° 0 mm 2 mps 754 mmHg 36%
    06:00 +19°C° 0 mm 2 mps 754 mmHg 36%
    07:00 +19°C° 0 mm 2 mps 755 mmHg 36%
    08:00 +20°C° 0 mm 2 mps 755 mmHg 36%
    09:00 +23°C° 0 mm 2 mps 755 mmHg 31%
    10:00 +26°C° 0 mm 2 mps 755 mmHg 27%
    11:00 +29°C° 0 mm 2 mps 755 mmHg 23%
    12:00 +30°C° 0 mm 1 mps 755 mmHg 21%
    13:00 +31°C° 0 mm 1 mps 754 mmHg 20%
    14:00 +32°C° 0 mm 1 mps 753 mmHg 19%
    15:00 +32°C° 0 mm 1 mps 753 mmHg 21%
    16:00 +31°C° 0 mm 1 mps 753 mmHg 22%
    17:00 +31°C° 0 mm 2 mps 753 mmHg 24%
    18:00 +29°C° 0 mm 2 mps 753 mmHg 25%
    19:00 +27°C° 0 mm 3 mps 754 mmHg 26%
    20:00 +25°C° 0 mm 3 mps 754 mmHg 27%
    21:00 +24°C° 0 mm 3 mps 754 mmHg 26%
    22:00 +22°C° 0 mm 3 mps 754 mmHg 25%
    23:00 +21°C° 0 mm 3 mps 754 mmHg 24%

    Tomorrow, 22 January, Monday

    Time Temperature Precipitation Wind Pressure Humidity
    00:00 +21°C° 0 mm 3 mps 754 mmHg 25%
    01:00 +20°C° 0 mm 3 mps 754 mmHg 25%
    02:00 +20°C° 0 mm 2 mps 753 mmHg 25%
    03:00 +19°C° 0 mm 2 mps 753 mmHg 26%
    04:00 +19°C° 0 mm 2 mps 753 mmHg 27%
    05:00 +19°C° 0 mm 1 mps 753 mmHg 27%
    06:00 +20°C° 0 mm 1 mps 753 mmHg 28%
    07:00 +21°C° 0 mm 1 mps 754 mmHg 29%
    08:00 +21°C° 0 mm 1 mps 754 mmHg 29%
    09:00 +24°C° 0 mm 1 mps 754 mmHg 26%
    10:00 +26°C° 0 mm 1 mps 754 mmHg 23%
    11:00 +29°C° 0 mm 1 mps 754 mmHg 20%
    12:00 +30°C° 0 mm 1 mps 753 mmHg 20%
    13:00 +31°C° 0 mm 1 mps 752 mmHg 19%
    14:00 +32°C° 0 mm 2 mps 752 mmHg 19%
    15:00 +31°C° 0 mm 2 mps 751 mmHg 20%
    16:00 +31°C° 0 mm 3 mps 751 mmHg 22%
    17:00 +30°C° 0 mm 3 mps 751 mmHg 23%
    18:00 +28°C° 0 mm 3 mps 751 mmHg 26%
    19:00 +26°C° 0 mm 4 mps 752 mmHg 29%
    20:00 +22°C° 0 mm 4 mps 753 mmHg 33%
    21:00 +22°C° 0 mm 3 mps 753 mmHg 37%
    22:00 +21°C° 0 mm 3 mps 753 mmHg 41%
    23:00 +20°C° 0 mm 3 mps 753 mmHg 45%

    Day after tomorrow, 23 January, Tuesday

    Time Temperature Precipitation Wind Pressure Humidity
    00:00 +20°C° 0 mm 3 mps 753 mmHg 47%
    01:00 +19°C° 0 mm 2 mps 752 mmHg 50%
    02:00 +19°C° 0 mm 2 mps 752 mmHg 52%
    03:00 +18°C° 0 mm 2 mps 752 mmHg 56%
    04:00 +18°C° 0 mm 2 mps 752 mmHg 60%
    05:00 +18°C° 0 mm 1 mps 752 mmHg 65%
    06:00 +19°C° 0 mm 1 mps 752 mmHg 64%
    07:00 +20°C° 0 mm 1 mps 753 mmHg 64%
    08:00 +18°C° 0 mm 0 mps 753 mmHg 64%
    09:00 +21°C° 0 mm 2 mps 754 mmHg 57%
    10:00 +24°C° 0 mm 3 mps 754 mmHg 49%
    11:00 +26°C° 0 mm 4 mps 754 mmHg 41%
    12:00 +27°C° 0 mm 5 mps 753 mmHg 37%
    13:00 +28°C° 0 mm 5 mps 752 mmHg 32%
    14:00 +29°C° 0 mm 6 mps 751 mmHg 27%
    15:00 +28°C° 0 mm 5 mps 751 mmHg 27%
    16:00 +28°C° 0 mm 5 mps 751 mmHg 27%
    17:00 +27°C° 0 mm 5 mps 751 mmHg 27%
    18:00 +25°C° 0 mm 4 mps 752 mmHg 30%
    19:00 +22°C° 0 mm 4 mps 752 mmHg 32%
    20:00 +21°C° 0 mm 3 mps 753 mmHg 34%
    21:00 +20°C° 0 mm 3 mps 753 mmHg 37%
    22:00 +19°C° 0 mm 2 mps 754 mmHg 39%
    23:00 +19°C° 0 mm 2 mps 754 mmHg 41%

    24 January, Wednesday

    Time Temperature Precipitation Wind Pressure Humidity
    00:00 +18°C° 0 mm 2 mps 754 mmHg 42%
    01:00 +18°C° 0 mm 2 mps 753 mmHg 43%
    02:00 +18°C° 0 mm 2 mps 753 mmHg 44%
    03:00 +17°C° 0 mm 3 mps 753 mmHg 45%
    04:00 +17°C° 0 mm 3 mps 753 mmHg 47%
    05:00 +16°C° 0 mm 3 mps 753 mmHg 48%
    06:00 +17°C° 0 mm 3 mps 754 mmHg 47%
    07:00 +17°C° 0 mm 3 mps 755 mmHg 47%
    08:00 +18°C° 0 mm 3 mps 755 mmHg 46%
    09:00 +20°C° 0 mm 3 mps 756 mmHg 38%
    10:00 +24°C° 0 mm 3 mps 756 mmHg 30%
    11:00 +27°C° 0 mm 3 mps 756 mmHg 23%
    12:00 +28°C° 0 mm 3 mps 755 mmHg 20%
    13:00 +29°C° 0 mm 3 mps 754 mmHg 17%
    14:00 +30°C° 0 mm 3 mps 754 mmHg 14%
    15:00 +29°C° 0 mm 3 mps 753 mmHg 15%
    16:00 +29°C° 0 mm 3 mps 753 mmHg 16%
    17:00 +28°C° 0 mm 3 mps 753 mmHg 17%
    18:00 +26°C° 0 mm 3 mps 754 mmHg 19%
    19:00 +24°C° 0 mm 3 mps 754 mmHg 21%
    20:00 +21°C° 0 mm 3 mps 755 mmHg 23%
    21:00 +20°C° 0 mm 3 mps 755 mmHg 23%
    22:00 +19°C° 0 mm 3 mps 755 mmHg 24%
    23:00 +18°C° 0 mm 3 mps 755 mmHg 25%

    25 January, Thursday

    Time Temperature Precipitation Wind Pressure Humidity
    00:00 +18°C° 0 mm 3 mps 755 mmHg 25%
    01:00 +17°C° 0 mm 3 mps 754 mmHg 26%
    02:00 +17°C° 0 mm 3 mps 754 mmHg 27%
    03:00 +16°C° 0 mm 2 mps 754 mmHg 28%
    04:00 +16°C° 0 mm 2 mps 754 mmHg 29%
    05:00 +16°C° 0 mm 2 mps 754 mmHg 31%
    06:00 +16°C° 0 mm 2 mps 754 mmHg 32%
    07:00 +17°C° 0 mm 3 mps 755 mmHg 33%
    08:00 +17°C° 0 mm 3 mps 756 mmHg 35%
    09:00 +20°C° 0 mm 3 mps 756 mmHg 31%
    10:00 +24°C° 0 mm 3 mps 756 mmHg 26%
    11:00 +27°C° 0 mm 3 mps 756 mmHg 22%
    12:00 +28°C° 0 mm 2 mps 755 mmHg 20%
    13:00 +29°C° 0 mm 2 mps 754 mmHg 17%
    14:00 +30°C° 0 mm 1 mps 753 mmHg 15%
    15:00 +29°C° 0 mm 1 mps 753 mmHg 16%
    16:00 +29°C° 0 mm 2 mps 753 mmHg 17%
    17:00 +29°C° 0 mm 2 mps 753 mmHg 18%
    18:00 +27°C° 0 mm 2 mps 753 mmHg 20%
    19:00 +24°C° 0 mm 2 mps 754 mmHg 22%
    20:00 +21°C° 0 mm 3 mps 754 mmHg 24%
    21:00 +21°C° 0 mm 3 mps 754 mmHg 25%
    22:00 +20°C° 0 mm 3 mps 754 mmHg 26%
    23:00 +19°C° 0 mm 3 mps 754 mmHg 27%

    26 January, Friday

    Time Temperature Precipitation Wind Pressure Humidity
    00:00 +18°C° 0 mm 3 mps 754 mmHg 27%
    01:00 +18°C° 0 mm 2 mps 754 mmHg 28%
    02:00 +17°C° 0 mm 2 mps 753 mmHg 28%
    03:00 +17°C° 0 mm 2 mps 753 mmHg 28%
    04:00 +17°C° 0 mm 3 mps 753 mmHg 28%
    05:00 +16°C° 0 mm 3 mps 753 mmHg 28%
    06:00 +17°C° 0 mm 3 mps 754 mmHg 29%
    07:00 +17°C° 0 mm 3 mps 754 mmHg 31%
    08:00 +18°C° 0 mm 3 mps 755 mmHg 32%
    09:00 +21°C° 0 mm 3 mps 755 mmHg 28%
    10:00 +25°C° 0 mm 3 mps 755 mmHg 25%
    11:00 +28°C° 0 mm 4 mps 755 mmHg 21%
    12:00 +29°C° 0 mm 3 mps 754 mmHg 19%
    13:00 +30°C° 0 mm 2 mps 754 mmHg 17%
    14:00 +31°C° 0 mm 2 mps 753 mmHg 15%
    15:00 +30°C° 0 mm 2 mps 753 mmHg 16%
    16:00 +30°C° 0 mm 1 mps 752 mmHg 17%
    17:00 +30°C° 0 mm 1 mps 752 mmHg 19%
    18:00 +28°C° 0 mm 1 mps 753 mmHg 20%
    19:00 +25°C° 0 mm 2 mps 753 mmHg 21%
    20:00 +23°C° 0 mm 2 mps 754 mmHg 22%
    21:00 +21°C° 0 mm 2 mps 754 mmHg 23%
    22:00 +21°C° 0 mm 2 mps 754 mmHg 24%
    23:00 +20°C° 0 mm 2 mps 754 mmHg 26%
    Show more